CAPE
2 2 0 0 0 0 2 2 0 0 0 0 0 0 0 0 0 0 0 0 0 0 0 0 0 0 0 0 0 0 0 0 0 0 0 0 0 0 0 0 0 0 0 0 0
2 1 2 1 0 0 2 3 0 0 0 0 0 0 0 0 0 0 0 0 0 0 0 0 0 0 0 0 0 0 0 0 0 0 0 0 0 0 0 0 0 0 0 0 0
0 1 1 1 0 0 1 2 1 0 0 0 0 0 0 0 0 0 0 0 0 0 0 0 0 0 0 0 0 0 0 0 0 0 0 0 0 0 0 0 0 0 0 0 0
0 0 1 2 0 0 0 1 1 0 0 0 0 0 0 0 0 0 0 0 0 0 0 0 0 0 0 0 0 0 0 0 0 0 0 0 0 0 0 0 0 0 0 0 0
1 0 1 1 0 0 0 1 0 0 0 0 0 0 0 0 0 0 0 0 0 0 0 0 0 0 0 0 0 0 0 0 0 0 0 0 0 0 0 0 0 0 0 0 0
1 2 1 3 0 0 0 0 0 0 0 0 0 0 0 0 0 0 0 0 0 0 0 0 0 0 0 0 0 0 0 0 0 0 0 0 0 0 0 0 0 0 0 0 0
1 0 2 3 0 0 0 0 0 0 0 0 0 0 0 0 0 0 0 0 0 0 0 0 0 0 0 0 0 0 0 0 0 0 0 0 0 0 0 0 0 0 0 0 0
0 1 1 3 0 0 0 0 0 0 0 0 0 0 0 0 0 0 0 0 0 0 0 0 0 0 0 0 0 0 0 0 0 0 0 0 0 0 0 0 0 0 0 0 0
1 0 1 2 0 0 0 0 0 0 0 0 0 0 0 0 0 0 0 0 0 0 0 0 0 0 0 0 0 0 0 0 0 0 0 0 0 0 0 0 0 0 0 0 0
0 0 1 2 0 0 0 0 0 0 0 0 0 0 0 0 0 0 0 0 0 0 0 0 0 0 0 0 0 0 0 0 0 0 0 0 0 0 0 0 0 0 0 0 0
0 0 0 1 0 0 0 0 0 0 0 0 0 0 0 0 0 0 0 0 0 0 0 0 0 0 0 0 0 0 0 0 0 0 0 0 0 0 0 0 0 0 0 0 0
0 0 0 2 0 0 0 0 0 0 0 0 0 0 0 0 0 0 0 0 0 0 0 0 0 0 0 0 0 0 0 0 0 0 0 0 0 0 0 0 0 0 0 0 0
0 0 0 1 0 0 0 0 0 0 0 0 0 0 0 0 0 0 0 0 0 0 0 0 0 0 0 0 0 0 0 0 0 0 0 0 0 0 0 0 0 0 0 0 0
0 0 0 1 0 0 0 0 0 0 0 0 0 0 0 0 0 0 0 0 0 0 0 0 0 0 0 0 0 0 0 0 0 0 0 0 0 0 0 0 0 0 0 0 0
2 2 1 0 0 0 0 0 0 0 0 0 0 0 0 0 0 0 0 0 0 0 0 0 0 0 0 0 0 0 0 0 0 0 0 0 0 0 0 0 0 0 0 0 0
3 4 2 0 0 0 0 0 0 0 0 0 0 0 0 0 0 0 0 0 0 0 0 0 0 0 0 0 0 0 0 0 0 0 0 0 0 0 0 0 0 0 0 0 0
2 4 0 0 0 0 0 0 0 0 0 0 0 0 0 0 0 0 0 0 0 0 0 0 0 0 0 0 0 0 0 0 0 0 0 0 0 0 0 0 0 0 0 0 0
3 2 3 0 0 0 0 0 0 0 0 0 0 0 0 0 0 0 0 0 0 0 0 0 0 0 0 0 0 0 0 0 0 0 0 0 0 0 0 0 0 0 0 0 0
1 1 2 0 0 0 0 0 0 0 0 0 0 0 0 0 0 0 0 0 0 0 0 0 0 0 0 0 0 0 0 0 0 0 0 0 0 0 0 0 0 0 0 0 0
0 1 2 0 0 0 0 0 0 0 0 0 0 0 0 0 0 0 0 0 0 0 0 0 0 0 0 0 0 0 0 0 0 0 0 0 0 0 0 0 0 0 0 0 0
0 0 2 2 1 0 1 0 0 0 0 0 0 0 0 0 0 0 0 0 0 0 0 0 0 0 0 0 0 0 0 0 0 0 0 0 0 0 0 0 0 0 0 0 0
0 0 6 4 0 0 0 0 0 0 0 0 0 0 0 0 0 0 0 0 0 0 0 0 0 0 0 0 0 0 0 0 0 0 0 0 0 0 0 0 0 0 0 0 0
0 1 2 0 0 1 0 0 0 0 0 0 0 0 0 0 0 0 0 0 0 0 0 0 0 0 0 0 0 0 0 0 0 0 0 0 0 0 0 0 0 0 0 0 0
0 1 0 1 0 1 1 0 0 0 0 0 0 0 0 0 0 0 0 0 0 0 0 0 0 0 0 0 0 0 0 0 0 0 0 0 0 0 0 0 0 0 0 0 0
0 0 0 0 2 1 0 0 0 0 0 0 0 0 0 0 0 0 0 0 0 0 0 0 0 0 0 0 0 0 0 0 0 0 0 0 0 0 0 0 0 0 0 0 0
0 0 0 0 0 1 2 0 0 0 0 0 0 0 0 0 0 0 0 0 0 0 0 0 0 0 0 0 0 0 0 0 0 0 0 0 0 0 0 0 0 0 0 0 0
0 0 0 0 0 1 1 0 0 0 0 0 0 0 0 0 0 0 0 0 0 0 0 0 0 0 0 0 0 0 0 0 0 0 0 0 0 0 0 0 0 0 0 0 0
CIN
0 0 0 0 0 0 0 0 0 0 0 0 0 0 0 0 0 0 0 0 0 0 0 0 0 0 0 0 0 0 0 0 0 0 0 0 0 0 0 0 0 0 0 0 0
0 0 0 0 0 0 0 0 0 0 0 0 0 0 0 0 0 0 0 0 0 0 0 0 0 0 0 0 0 0 0 0 0 0 0 0 0 0 0 0 0 0 0 0 0
0 0 0 0 0 0 0 0 0 0 0 0 0 0 0 0 0 0 0 0 0 0 0 0 0 0 0 0 0 0 0 0 0 0 0 0 0 0 0 0 0 0 0 0 0
0 0 0 0 0 0 0 0 0 0 0 0 0 0 0 0 0 0 0 0 0 0 0 0 0 0 0 0 0 0 0 0 0 0 0 0 0 0 0 0 0 0 0 0 0
0 0 0 0 0 0 0 0 0 0 0 0 0 0 0 0 0 0 0 0 0 0 0 0 0 0 0 0 0 0 0 0 0 0 0 0 0 0 0 0 0 0 0 0 0
0 0 0 0 0 0 0 0 0 0 0 0 0 0 0 0 0 0 0 0 0 0 0 0 0 0 0 0 0 0 0 0 0 0 0 0 0 0 0 0 0 0 0 0 0
0 0 0 0 0 0 0 0 0 0 0 0 0 0 0 0 0 0 0 0 0 0 0 0 0 0 0 0 0 0 0 0 0 0 0 0 0 0 0 0 0 0 0 0 0
-1 0 -1 0 0 0 0 0 0 0 0 0 0 0 0 0 0 0 0 0 0 0 0 0 0 0 0 0 0 0 0 0 0 0 0 0 0 0 0 0 0 0 0 0 0
-1 -1 0 0 0 0 0 0 0 0 0 0 0 0 0 0 0 0 0 0 0 0 0 0 0 0 0 0 0 0 0 0 0 0 0 0 0 0 0 0 0 0 0 0 0
0 0 0 0 0 0 0 0 0 0 0 0 0 0 0 0 0 0 0 0 0 0 0 0 0 0 0 0 0 0 0 0 0 0 0 0 0 0 0 0 0 0 0 0 0
0 0 0 0 0 0 0 0 0 0 0 0 0 0 0 0 0 0 0 0 0 0 0 0 0 0 0 0 0 0 0 0 0 0 0 0 0 0 0 0 0 0 0 0 0
0 0 0 0 0 0 0 0 0 0 0 0 0 0 0 0 0 0 0 0 0 0 0 0 0 0 0 0 0 0 0 0 0 0 0 0 0 0 0 0 0 0 0 0 0
0 0 0 0 0 0 0 0 0 0 0 0 0 0 0 0 0 0 0 0 0 0 0 0 0 0 0 0 0 0 0 0 0 0 0 0 0 0 0 0 0 0 0 0 0
0 0 0 0 0 0 0 0 0 0 0 0 0 0 0 0 0 0 0 0 0 0 0 0 0 0 0 0 0 0 0 0 0 0 0 0 0 0 0 0 0 0 0 0 0
0 0 0 0 0 0 0 0 0 0 0 0 0 0 0 0 0 0 0 0 0 0 0 0 0 0 0 0 0 0 0 0 0 0 0 0 0 0 0 0 0 0 0 0 0
0 0 0 0 0 0 0 0 0 0 0 0 0 0 0 0 0 0 0 0 0 0 0 0 0 0 0 0 0 0 0 0 0 0 0 0 0 0 0 0 0 0 0 0 0
0 0 0 0 0 0 0 0 0 0 0 0 0 0 0 0 0 0 0 0 0 0 0 0 0 0 0 0 0 0 0 0 0 0 0 0 0 0 0 0 0 0 0 0 0
0 0 0 0 0 0 0 0 0 0 0 0 0 0 0 0 0 0 0 0 0 0 0 0 0 0 0 0 0 0 0 0 0 0 0 0 0 0 0 0 0 0 0 0 0
0 0 0 0 0 0 0 0 0 0 0 0 0 0 0 0 0 0 0 0 0 0 0 0 0 0 0 0 0 0 0 0 0 0 0 0 0 0 0 0 0 0 0 0 0
0 0 0 0 0 0 0 0 0 0 0 0 0 0 0 0 0 0 0 0 0 0 0 0 0 0 0 0 0 0 0 0 0 0 0 0 0 0 0 0 0 0 0 0 0
0 0 0 0 -3 0 0 0 0 0 0 0 0 0 0 0 0 0 0 0 0 0 0 0 0 0 0 0 0 0 0 0 0 0 0 0 0 0 0 0 0 0 0 0 0
0 0 0 0 0 0 0 0 0 0 0 0 0 0 0 0 0 0 0 0 0 0 0 0 0 0 0 0 0 0 0 0 0 0 0 0 0 0 0 0 0 0 0 0 0
0 0 -3 0 0 0 0 0 0 0 0 0 0 0 0 0 0 0 0 0 0 0 0 0 0 0 0 0 0 0 0 0 0 0 0 0 0 0 0 0 0 0 0 0 0
0 0 0 0 0 0 0 0 0 0 0 0 0 0 0 0 0 0 0 0 0 0 0 0 0 0 0 0 0 0 0 0 0 0 0 0 0 0 0 0 0 0 0 0 0
0 0 0 0 0 0 0 0 0 0 0 0 0 0 0 0 0 0 0 0 0 0 0 0 0 0 0 0 0 0 0 0 0 0 0 0 0 0 0 0 0 0 0 0 0
0 0 0 0 0 0 0 0 0 0 0 0 0 0 0 0 0 0 0 0 0 0 0 0 0 0 0 0 0 0 0 0 0 0 0 0 0 0 0 0 0 0 0 0 0
0 0 0 0 0 0 0 0 0 0 0 0 0 0 0 0 0 0 0 0 0 0 0 0 0 0 0 0 0 0 0 0 0 0 0 0 0 0 0 0 0 0 0 0 0
Wind_Speed
14 15 15 15 16 17 18 18 17 17 16 16 16 16 17 16 12 11 11 13 15 19 15 9 9 9 10 10 12 11 13 13 11 9 11 8 7 8 9 9 8 8 11 12 10
14 16 15 16 16 17 17 17 17 17 17 16 16 17 17 16 10 11 13 16 17 16 10 6 7 8 10 10 12 10 11 11 11 8 10 7 5 6 7 6 6 8 10 9 8
15 16 16 17 16 16 17 17 17 17 16 16 17 17 17 14 11 12 15 18 16 12 10 8 8 9 9 11 13 12 11 13 15 11 9 5 4 5 5 5 3 3 4 6 6
14 15 16 16 16 16 17 17 17 17 16 15 16 17 17 12 14 13 18 18 14 8 8 7 9 8 9 9 12 11 14 14 15 13 9 5 6 7 1 9 12 5 4 5 5
18 15 16 16 16 16 16 17 17 17 18 16 16 18 13 13 13 15 18 15 10 8 7 7 7 8 8 10 11 12 12 15 14 12 11 9 9 9 5 8 12 5 3 4 4
18 17 16 15 15 16 17 18 17 17 17 17 16 15 13 13 14 17 17 12 10 9 8 9 7 8 10 12 13 12 12 12 14 12 12 10 12 13 10 7 7 1 3 4 4
17 18 17 15 16 16 17 17 17 17 16 16 16 13 14 13 15 16 13 12 12 10 8 10 6 10 9 10 9 10 14 14 13 11 12 12 11 6 8 6 3 1 2 3 3
17 18 18 16 15 16 16 17 18 17 17 15 16 14 14 14 15 14 13 11 11 10 7 8 9 9 12 9 14 15 16 14 13 10 12 11 11 15 6 3 3 4 5 5 5
16 15 16 16 16 15 17 17 18 17 16 15 14 16 17 14 13 14 13 9 8 9 9 9 12 12 10 10 16 18 14 11 13 7 11 5 13 15 8 4 5 6 7 8 7
17 16 16 16 16 15 15 16 15 16 14 14 15 18 17 14 13 13 12 10 11 7 9 12 13 12 11 8 8 12 12 13 8 10 4 5 17 9 10 5 8 10 12 12 11
19 17 16 15 16 16 14 13 15 19 18 20 17 19 14 15 14 14 13 10 11 11 8 12 9 3 3 8 17 14 14 14 14 14 7 11 23 22 11 11 14 17 18 18 18
21 19 17 15 15 15 15 18 18 16 20 20 18 18 16 14 15 14 12 12 10 12 10 13 7 11 10 9 14 14 15 16 18 16 12 20 30 32 17 22 20 19 19 20 15
23 20 18 15 14 17 18 18 16 16 23 22 21 21 19 15 18 11 12 13 14 12 12 14 17 11 11 9 12 14 14 17 19 20 19 36 25 19 20 13 12 16 16 17 18
26 23 19 15 20 20 23 17 14 16 28 29 25 22 20 16 20 17 16 15 17 11 12 19 16 13 12 11 11 15 17 17 20 22 18 24 11 20 20 14 7 10 13 12 14
25 24 21 19 19 22 20 13 12 16 34 24 23 19 18 20 14 18 17 18 14 14 14 16 14 13 16 16 11 17 16 18 21 22 29 23 18 22 22 15 7 3 10 9 9
27 24 21 22 23 21 13 11 15 25 32 23 19 20 19 22 21 16 17 16 15 17 19 18 17 17 18 16 16 8 17 21 22 24 23 26 18 27 19 15 19 17 12 3 3
25 25 24 21 22 14 13 15 26 34 25 27 23 19 18 19 20 19 18 17 18 19 20 23 21 19 15 17 16 18 18 27 27 22 16 24 22 15 15 16 14 18 18 13 6
21 19 21 25 18 15 16 22 37 33 31 22 21 20 21 17 21 21 20 23 22 21 20 22 28 20 18 21 20 18 21 22 25 24 23 23 20 19 20 22 19 15 14 13 8
20 23 22 19 18 19 20 32 38 31 28 26 22 25 26 23 22 22 25 28 24 20 23 22 28 22 21 20 17 20 22 21 26 27 30 25 27 36 28 27 15 13 14 13 10
18 23 26 18 16 20 29 38 33 26 22 27 35 30 30 25 25 22 23 26 26 22 24 23 28 25 22 20 21 20 14 22 22 24 26 25 25 21 23 21 22 18 11 10 12
19 24 18 16 17 25 37 38 34 28 25 26 32 30 32 30 28 27 29 28 22 19 23 23 26 27 23 25 23 22 22 22 20 20 25 26 23 15 19 22 21 19 18 15 10
25 31 18 17 25 31 36 31 30 31 27 29 29 29 30 28 32 31 31 29 20 17 23 24 25 30 29 26 24 24 25 21 25 27 26 28 27 20 20 22 19 21 21 19 15
29 25 21 24 34 35 31 32 28 28 30 29 30 29 29 31 35 31 31 28 21 21 20 19 28 34 32 29 27 28 26 26 28 29 29 29 28 21 20 21 20 21 22 21 18
25 31 28 33 30 36 38 37 35 29 30 28 29 28 31 33 31 32 32 28 24 25 22 21 28 34 37 33 24 28 28 27 28 32 33 32 35 33 29 25 25 23 21 22 21
26 31 33 42 47 37 35 35 38 36 31 29 33 32 32 34 33 35 30 26 24 25 24 25 36 34 36 35 33 34 32 28 31 32 35 35 30 29 30 30 29 28 27 28 28
28 30 30 34 37 40 38 44 42 36 32 38 39 33 31 34 33 31 28 28 31 25 26 28 38 35 41 37 38 46 41 35 34 36 40 41 42 37 39 40 38 32 33 32 27
25 23 28 32 33 38 46 39 39 34 36 35 37 35 35 35 32 29 28 29 28 27 28 29 34 37 48 37 40 54 43 40 39 37 38 45 44 41 44 39 40 39 34 32 29
Wind_Direction
305 301 309 314 312 295 286 284 288 288 286 283 284 286 284 287 298 304 309 306 301 286 303 347 2 6 350 351 354 6 357 359 12 27 25 91 83 54 23 34 39 38 22 14 91
300 296 302 304 307 301 297 303 293 288 286 284 288 288 290 293 313 310 310 297 295 301 333 21 25 7 346 349 346 358 1 4 9 20 15 92 72 83 35 32 31 17 15 46 88
291 291 294 296 302 303 301 300 296 296 293 293 289 289 290 299 307 307 304 293 299 317 335 353 8 353 342 340 341 352 351 352 341 350 3 48 38 34 28 9 16 34 56 90 92
287 287 289 294 297 301 295 296 299 298 300 301 296 292 289 302 289 307 293 293 304 335 346 359 344 341 343 346 343 351 347 347 345 346 351 17 4 358 349 346 356 9 109 114 123
275 284 286 289 296 301 299 295 297 294 288 294 295 287 299 296 300 303 291 299 319 332 339 356 349 347 348 342 346 345 348 344 346 345 344 350 339 337 328 334 343 17 108 138 137
272 275 282 287 294 296 298 293 295 294 295 293 297 299 299 290 300 297 294 309 319 322 334 334 355 356 347 337 338 354 0 354 345 345 343 338 333 330 341 337 342 12 160 160 163
267 271 275 282 288 292 294 293 295 296 297 301 299 305 296 299 300 301 312 313 310 316 329 336 23 340 358 354 10 2 340 346 341 345 345 340 323 296 328 344 333 213 197 203 209
260 269 271 275 284 289 291 291 291 293 296 303 300 298 297 302 302 302 303 315 320 329 1 12 8 357 338 25 348 338 336 335 336 343 339 336 318 335 321 311 250 218 215 220 223
254 259 268 269 276 284 287 288 288 290 295 299 301 290 288 298 290 297 300 311 322 329 338 342 331 334 345 339 328 321 334 339 341 339 338 312 323 330 335 281 248 236 227 218 222
246 252 260 264 270 278 284 286 291 291 296 302 298 284 287 286 287 290 297 301 305 322 323 317 320 318 323 329 323 329 332 337 341 345 308 284 235 300 324 284 239 230 219 216 217
240 245 251 259 265 270 274 284 285 282 280 277 282 277 297 284 287 281 285 296 295 300 305 307 313 264 210 321 321 334 337 338 342 346 338 239 238 237 248 250 235 225 218 216 215
234 237 243 251 259 264 266 272 278 286 278 278 282 280 286 287 282 277 281 283 287 287 302 304 284 316 334 329 321 327 330 330 334 339 337 302 251 249 237 232 230 229 225 220 218
229 231 235 244 253 261 260 269 281 285 279 279 274 274 277 278 279 267 273 284 282 283 284 289 305 318 313 318 318 323 326 328 329 334 331 302 279 320 319 235 241 233 227 223 219
228 224 223 231 256 255 256 262 278 287 275 272 268 273 273 276 275 276 274 282 285 272 284 292 299 303 310 309 317 315 325 328 328 329 332 333 291 337 333 329 306 228 226 224 217
223 218 216 224 255 246 258 241 271 283 271 277 267 279 268 265 276 271 276 277 277 280 285 290 297 293 295 304 307 315 329 327 326 325 318 325 333 336 336 333 340 245 216 222 223
221 215 212 243 253 253 233 226 265 262 267 273 274 266 258 265 269 272 269 282 284 282 288 290 299 299 299 306 306 329 323 325 326 322 319 321 325 326 344 352 345 352 2 18 190
219 211 222 234 243 230 212 235 253 253 266 267 271 270 264 263 265 264 257 254 263 270 269 282 284 292 296 298 305 302 310 311 314 318 316 324 323 321 328 330 338 335 339 351 6
217 213 237 246 229 210 227 237 252 261 255 270 270 264 265 265 268 265 262 256 263 273 279 270 279 275 283 287 290 290 296 303 309 311 319 323 321 331 335 333 335 332 332 340 351
204 239 246 235 219 224 213 244 254 258 253 252 263 265 268 268 273 265 263 265 260 255 268 277 279 286 287 288 288 289 288 302 302 307 306 308 311 306 315 315 318 329 337 345 356
232 244 250 219 223 218 238 248 256 259 260 256 255 263 264 263 265 263 263 276 263 252 269 277 281 285 286 287 289 287 294 296 296 304 304 310 308 314 326 331 331 333 331 329 340
240 248 246 221 223 235 245 251 254 260 257 260 258 262 264 264 263 266 273 278 269 263 258 268 276 283 282 275 273 280 281 291 296 297 301 305 308 331 324 322 322 325 332 336 336
246 249 231 205 236 248 249 254 259 253 256 263 265 266 265 263 262 265 267 274 278 268 261 264 278 274 276 284 283 279 278 271 282 292 293 296 297 322 321 319 325 315 317 327 328
244 252 242 226 243 245 255 258 258 257 254 258 261 265 269 266 267 268 270 277 275 268 269 260 271 272 279 282 282 277 271 273 279 288 283 289 299 324 325 323 317 312 313 318 322
246 245 243 240 255 252 251 254 255 262 263 263 268 266 267 268 269 274 271 279 275 272 277 266 271 268 270 281 287 280 272 259 263 276 283 277 292 298 305 311 314 311 309 312 314
251 251 249 243 247 255 252 256 254 259 260 259 266 261 260 267 270 270 275 277 279 276 272 270 272 274 275 279 282 283 281 269 259 261 275 290 282 291 300 305 304 303 302 302 303
254 255 255 260 250 248 253 254 256 257 258 260 263 263 263 263 264 274 274 273 274 275 273 275 272 277 277 280 279 278 277 275 271 275 277 282 284 294 298 300 299 297 298 297 296
258 263 263 258 251 248 250 257 258 259 265 264 263 263 264 261 273 276 279 277 274 273 270 270 273 275 275 280 283 277 274 270 275 275 280 282 289 296 295 294 295 297 299 297 297